Time,TemperatureF,DewpointF,PressureIn,WindDirection,WindDirectionDegrees,WindSpeedMPH,WindSpeedGustMPH,Humidity,HourlyPrecipIn,Conditions,Clouds,dailyrainin,SoftwareType,DateUTC
2013-02-06 00:00:00,37.4,32.7,29.87,North,0,0.0,0.0,83,0.00,CLR,,0.00,WeatherDisplay:10.37,2013-02-06 05:00:00,
2013-02-06 00:05:00,37.5,32.8,29.87,North,0,0.0,0.0,83,0.00,CLR,,0.00,WeatherDisplay:10.37,2013-02-06 05:05:00,
2013-02-06 00:10:00,37.5,32.8,29.87,North,0,0.0,0.0,83,0.00,CLR,,0.00,WeatherDisplay:10.37,2013-02-06 05:10:00,
2013-02-06 00:15:00,37.3,32.9,29.88,North,0,0.0,0.0,84,0.00,CLR,,0.00,WeatherDisplay:10.37,2013-02-06 05:15:00,
2013-02-06 00:20:00,37.1,33.0,29.88,North,0,0.0,0.0,85,0.00,CLR,,0.00,WeatherDisplay:10.37,2013-02-06 05:20:00,
2013-02-06 00:25:00,36.7,32.9,29.88,North,0,0.0,0.0,86,0.00,CLR,,0.00,WeatherDisplay:10.37,2013-02-06 05:25:00,
2013-02-06 00:30:00,36.4,32.6,29.88,North,0,0.0,0.0,86,0.00,CLR,,0.00,WeatherDisplay:10.37,2013-02-06 05:30:00,
2013-02-06 00:35:00,36.6,33.1,29.88,North,0,0.0,0.0,87,0.00,CLR,,0.00,WeatherDisplay:10.37,2013-02-06 05:35:00,
2013-02-06 00:40:00,37.1,33.3,29.88,SE,134,2.3,2.3,86,0.00,CLR,,0.00,WeatherDisplay:10.37,2013-02-06 05:40:00,
2013-02-06 00:45:00,37.3,33.8,29.88,SE,134,0.0,0.0,87,0.00,CLR,,0.00,WeatherDisplay:10.37,2013-02-06 05:45:00,
2013-02-06 00:50:00,37.6,33.8,29.88,SE,134,0.0,0.0,86,0.00,CLR,,0.00,WeatherDisplay:10.37,2013-02-06 05:50:00,
2013-02-06 00:55:00,37.9,33.5,29.88,South,182,0.0,0.0,84,0.00,CLR,,0.00,WeatherDisplay:10.37,2013-02-06 05:55:00,
2013-02-06 01:00:00,38.0,33.3,29.88,North,360,4.6,4.6,83,0.00,CLR,,0.00,WeatherDisplay:10.37,2013-02-06 06:00:00,
2013-02-06 01:05:00,37.9,33.2,29.87,North,360,8.1,8.1,83,0.00,CLR,,0.00,WeatherDisplay:10.37,2013-02-06 06:05:00,
2013-02-06 01:10:00,37.9,33.2,29.87,North,360,5.8,5.8,83,0.00,CLR,,0.00,WeatherDisplay:10.37,2013-02-06 06:10:00,
2013-02-06 01:16:00,37.7,33.3,29.87,SE,131,0.0,0.1,84,0.00,CLR,,0.00,WeatherDisplay:10.37,2013-02-06 06:16:00,
2013-02-06 01:21:00,37.7,33.3,29.87,South,172,2.3,0.0,84,0.00,CLR,,0.00,WeatherDisplay:10.37,2013-02-06 06:21:00,
2013-02-06 01:26:00,37.5,33.1,29.87,SSE,161,2.3,2.3,84,0.00,CLR,,0.00,WeatherDisplay:10.37,2013-02-06 06:26:00,
2013-02-06 01:31:00,37.5,33.1,29.87,SSE,147,0.0,0.0,84,0.00,CLR,,0.00,WeatherDisplay:10.37,2013-02-06 06:31:00,
2013-02-06 01:36:00,37.4,33.0,29.87,SSE,147,0.0,0.0,84,0.00,CLR,,0.00,WeatherDisplay:10.37,2013-02-06 06:36:00,
2013-02-06 01:41:00,36.7,32.9,29.87,SSE,147,0.0,0.0,86,0.00,CLR,,0.00,WeatherDisplay:10.37,2013-02-06 06:41:00,
2013-02-06 01:46:00,36.5,33.0,29.87,South,189,2.3,2.3,87,0.00,CLR,,0.00,WeatherDisplay:10.37,2013-02-06 06:46:00,
2013-02-06 01:51:00,35.8,32.6,29.87,South,189,0.0,0.0,88,0.00,CLR,,0.00,WeatherDisplay:10.37,2013-02-06 06:51:00,
2013-02-06 01:56:00,35.5,32.3,29.87,South,189,0.0,0.0,88,0.00,CLR,,0.00,WeatherDisplay:10.37,2013-02-06 06:56:00,
2013-02-06 02:01:00,35.2,32.0,29.87,South,189,0.0,0.0,88,0.00,CLR,,0.00,WeatherDisplay:10.37,2013-02-06 07:01:00,
2013-02-06 02:06:00,35.1,31.9,29.87,South,189,0.0,0.0,88,0.00,CLR,,0.00,WeatherDisplay:10.37,2013-02-06 07:06:00,
2013-02-06 02:11:00,35.0,32.1,29.88,South,189,0.0,0.0,89,0.00,CLR,,0.00,WeatherDisplay:10.37,2013-02-06 07:11:00,
2013-02-06 02:16:00,35.0,32.1,29.88,South,189,0.0,0.0,89,0.00,CLR,,0.00,WeatherDisplay:10.37,2013-02-06 07:16:00,
2013-02-06 02:21:00,35.0,32.4,29.88,South,189,0.0,0.0,90,0.00,CLR,,0.00,WeatherDisplay:10.37,2013-02-06 07:21:00,
2013-02-06 02:26:00,34.9,32.5,29.88,South,189,0.0,0.0,91,0.00,CLR,,0.00,WeatherDisplay:10.37,2013-02-06 07:26:00,
2013-02-06 02:31:00,34.8,32.4,29.88,South,189,0.0,0.0,91,0.00,CLR,,0.00,WeatherDisplay:10.37,2013-02-06 07:31:00,
2013-02-06 02:36:00,34.8,32.4,29.89,South,189,0.0,0.0,91,0.00,CLR,,0.00,WeatherDisplay:10.37,2013-02-06 07:36:00,
2013-02-06 02:41:00,35.1,32.5,29.89,South,189,0.0,0.0,90,0.00,CLR,,0.00,WeatherDisplay:10.37,2013-02-06 07:41:00,
2013-02-06 02:46:00,35.3,32.9,29.89,South,189,0.0,0.0,91,0.00,CLR,,0.00,WeatherDisplay:10.37,2013-02-06 07:46:00,
2013-02-06 02:51:00,35.4,32.8,29.89,South,189,0.0,0.0,90,0.00,CLR,,0.00,WeatherDisplay:10.37,2013-02-06 07:51:00,
2013-02-06 02:56:00,35.9,32.7,29.89,South,189,0.0,0.0,88,0.00,CLR,,0.00,WeatherDisplay:10.37,2013-02-06 07:56:00,
2013-02-06 03:01:00,36.2,33.0,29.89,South,189,0.0,0.0,88,0.00,CLR,,0.00,WeatherDisplay:10.37,2013-02-06 08:01:00,
2013-02-06 03:06:00,36.7,33.8,29.89,South,189,0.0,0.0,89,0.00,CLR,,0.00,WeatherDisplay:10.37,2013-02-06 08:06:00,
2013-02-06 03:11:00,36.4,33.5,29.89,South,189,0.0,0.0,89,0.00,CLR,,0.00,WeatherDisplay:10.37,2013-02-06 08:11:00,
2013-02-06 03:16:00,36.4,33.5,29.90,South,189,0.0,0.0,89,0.00,CLR,,0.00,WeatherDisplay:10.37,2013-02-06 08:16:00,
2013-02-06 03:21:00,36.6,33.4,29.89,South,189,0.0,0.0,88,0.00,CLR,,0.00,WeatherDisplay:10.37,2013-02-06 08:21:00,
2013-02-06 03:26:00,36.6,33.7,29.90,South,189,0.0,0.0,89,0.00,CLR,,0.00,WeatherDisplay:10.37,2013-02-06 08:26:00,
2013-02-06 03:31:00,35.9,33.5,29.90,South,189,0.0,0.0,91,0.00,CLR,,0.00,WeatherDisplay:10.37,2013-02-06 08:31:00,
2013-02-06 03:36:00,35.5,33.7,29.91,South,189,0.0,0.0,93,0.00,CLR,,0.00,WeatherDisplay:10.37,2013-02-06 08:36:00,
2013-02-06 03:41:00,35.1,33.0,29.91,South,189,0.0,0.0,92,0.00,CLR,,0.00,WeatherDisplay:10.37,2013-02-06 08:41:00,
2013-02-06 03:46:00,35.0,32.9,29.91,South,189,0.0,0.0,92,0.00,CLR,,0.00,WeatherDisplay:10.37,2013-02-06 08:46:00,
2013-02-06 03:51:00,35.0,32.9,29.92,South,189,0.0,0.0,92,0.00,CLR,,0.00,WeatherDisplay:10.37,2013-02-06 08:51:00,
2013-02-06 03:56:00,35.0,33.2,29.91,South,189,0.0,0.0,93,0.00,CLR,,0.00,WeatherDisplay:10.37,2013-02-06 08:56:00,
2013-02-06 04:01:00,34.9,33.1,29.92,South,189,0.0,0.0,93,0.00,CLR,,0.00,WeatherDisplay:10.37,2013-02-06 09:01:00,
2013-02-06 04:06:00,34.9,32.8,29.92,South,189,0.0,0.0,92,0.00,CLR,,0.00,WeatherDisplay:10.37,2013-02-06 09:06:00,
2013-02-06 04:11:00,35.0,33.2,29.92,South,189,0.0,0.0,93,0.00,CLR,,0.00,WeatherDisplay:10.37,2013-02-06 09:11:00,
2013-02-06 04:16:00,35.1,33.3,29.93,South,189,0.0,0.0,93,0.00,CLR,,0.00,WeatherDisplay:10.37,2013-02-06 09:16:00,
2013-02-06 04:21:00,35.1,33.3,29.93,South,189,0.0,0.0,93,0.00,CLR,,0.00,WeatherDisplay:10.37,2013-02-06 09:21:00,
2013-02-06 04:26:00,35.1,33.3,29.93,South,189,0.0,0.0,93,0.00,CLR,,0.00,WeatherDisplay:10.37,2013-02-06 09:26:00,
2013-02-06 04:31:00,35.1,33.0,29.93,South,189,0.0,0.0,92,0.00,CLR,,0.00,WeatherDisplay:10.37,2013-02-06 09:31:00,
2013-02-06 04:36:00,35.1,33.3,29.94,South,189,0.0,0.0,93,0.00,CLR,,0.00,WeatherDisplay:10.37,2013-02-06 09:36:00,
2013-02-06 04:41:00,35.2,33.1,29.94,South,189,0.0,0.0,92,0.00,CLR,,0.00,WeatherDisplay:10.37,2013-02-06 09:41:00,
2013-02-06 04:46:00,35.6,33.0,29.95,South,189,0.0,0.0,90,0.00,CLR,,0.00,WeatherDisplay:10.37,2013-02-06 09:46:00,
2013-02-06 04:51:00,36.3,33.4,29.95,North,352,3.5,3.5,89,0.00,CLR,,0.00,WeatherDisplay:10.37,2013-02-06 09:51:00,
2013-02-06 04:56:00,36.9,32.8,29.96,North,360,3.5,3.5,85,0.00,CLR,,0.00,WeatherDisplay:10.37,2013-02-06 09:56:00,
2013-02-06 05:01:00,37.7,32.4,29.96,North,360,6.9,6.9,81,0.00,CLR,,0.00,WeatherDisplay:10.37,2013-02-06 10:01:00,
2013-02-06 05:06:00,38.4,32.5,29.96,NNW,340,1.1,0.0,79,0.00,CLR,,0.00,WeatherDisplay:10.37,2013-02-06 10:06:00,
2013-02-06 05:11:00,38.6,32.3,29.96,NW,323,4.6,4.6,78,0.00,CLR,,0.00,WeatherDisplay:10.37,2013-02-06 10:11:00,
2013-02-06 05:16:00,38.9,32.0,29.97,North,359,5.8,5.8,76,0.00,CLR,,0.00,WeatherDisplay:10.37,2013-02-06 10:16:00,
2013-02-06 05:21:00,39.1,32.2,29.97,NNW,329,2.3,2.3,76,0.00,CLR,,0.00,WeatherDisplay:10.37,2013-02-06 10:21:00,
2013-02-06 05:26:00,39.2,32.6,29.97,North,360,4.7,4.7,77,0.00,CLR,,0.00,WeatherDisplay:10.37,2013-02-06 10:26:00,
2013-02-06 05:31:00,39.0,31.7,29.97,North,360,5.8,5.8,75,0.00,CLR,,0.00,WeatherDisplay:10.37,2013-02-06 10:31:00,
2013-02-06 05:36:00,39.2,31.6,29.97,NW,320,4.6,4.6,74,0.00,CLR,,0.00,WeatherDisplay:10.37,2013-02-06 10:36:00,
2013-02-06 05:41:00,39.1,31.8,29.98,NNW,346,3.5,3.5,75,0.00,CLR,,0.00,WeatherDisplay:10.37,2013-02-06 10:41:00,
2013-02-06 05:46:00,38.9,31.6,29.98,North,360,5.8,5.8,75,0.00,CLR,,0.00,WeatherDisplay:10.37,2013-02-06 10:46:00,
2013-02-06 05:51:00,38.7,31.5,29.99,NNW,333,4.6,4.6,75,0.00,CLR,,0.00,WeatherDisplay:10.37,2013-02-06 10:51:00,
2013-02-06 05:56:00,38.6,31.0,29.99,North,352,9.2,9.2,74,0.00,CLR,,0.00,WeatherDisplay:10.37,2013-02-06 10:56:00,
2013-02-06 06:01:00,38.4,30.5,29.99,North,360,9.2,9.2,73,0.00,CLR,,0.00,WeatherDisplay:10.37,2013-02-06 11:01:00,
2013-02-06 06:07:00,38.5,30.9,29.99,NNW,346,5.8,5.8,74,0.00,CLR,,0.00,WeatherDisplay:10.37,2013-02-06 11:07:00,
2013-02-06 06:12:00,38.3,30.7,29.99,North,360,4.6,4.6,74,0.00,CLR,,0.00,WeatherDisplay:10.37,2013-02-06 11:12:00,
2013-02-06 06:17:00,38.2,30.6,29.99,NNW,344,2.3,2.3,74,0.00,CLR,,0.00,WeatherDisplay:10.37,2013-02-06 11:17:00,
2013-02-06 06:22:00,38.2,30.6,30.00,NW,320,1.1,1.1,74,0.00,CLR,,0.00,WeatherDisplay:10.37,2013-02-06 11:22:00,
2013-02-06 06:27:00,38.1,30.9,30.00,North,360,2.3,2.3,75,0.00,CLR,,0.00,WeatherDisplay:10.37,2013-02-06 11:27:00,
2013-02-06 06:32:00,37.8,30.6,30.00,North,360,0.0,0.0,75,0.00,CLR,,0.00,WeatherDisplay:10.37,2013-02-06 11:32:00,
2013-02-06 06:37:00,37.1,30.2,30.01,North,360,0.0,0.0,76,0.00,CLR,,0.00,WeatherDisplay:10.37,2013-02-06 11:37:00,
2013-02-06 06:42:00,36.6,30.4,30.02,North,360,0.0,0.0,78,0.00,CLR,,0.00,WeatherDisplay:10.37,2013-02-06 11:42:00,
2013-02-06 06:47:00,36.1,29.9,30.02,North,360,0.0,0.0,78,0.00,CLR,,0.00,WeatherDisplay:10.37,2013-02-06 11:47:00,
2013-02-06 06:52:00,35.9,30.0,30.03,North,360,0.0,0.0,79,0.00,CLR,,0.00,WeatherDisplay:10.37,2013-02-06 11:52:00,
2013-02-06 06:57:00,36.1,29.9,30.03,North,360,0.0,0.0,78,0.00,CLR,,0.00,WeatherDisplay:10.37,2013-02-06 11:57:00,
2013-02-06 07:02:00,36.6,30.1,30.04,North,360,0.0,0.0,77,0.00,CLR,,0.00,WeatherDisplay:10.37,2013-02-06 12:02:00,
2013-02-06 07:07:00,36.6,30.1,30.04,North,360,0.0,0.0,77,0.00,CLR,,0.00,WeatherDisplay:10.37,2013-02-06 12:07:00,
2013-02-06 07:12:00,36.8,29.9,30.05,North,360,0.0,0.0,76,0.00,CLR,,0.00,WeatherDisplay:10.37,2013-02-06 12:12:00,
2013-02-06 07:17:00,36.9,30.0,30.04,North,360,0.0,0.0,76,0.00,CLR,,0.00,WeatherDisplay:10.37,2013-02-06 12:17:00,
2013-02-06 07:22:00,36.3,30.4,30.05,North,360,0.0,0.0,79,0.00,CLR,,0.00,WeatherDisplay:10.37,2013-02-06 12:22:00,
2013-02-06 07:27:00,35.5,29.9,30.05,North,360,0.0,0.0,80,0.00,CLR,,0.00,WeatherDisplay:10.37,2013-02-06 12:27:00,
2013-02-06 07:32:00,36.2,29.4,30.05,North,360,0.0,0.0,76,0.00,CLR,,0.00,WeatherDisplay:10.37,2013-02-06 12:32:00,
2013-02-06 07:37:00,36.4,29.9,30.06,North,360,0.0,0.0,77,0.00,CLR,,0.00,WeatherDisplay:10.37,2013-02-06 12:37:00,
2013-02-06 07:42:00,36.3,29.8,30.06,North,360,0.0,0.0,77,0.00,CLR,,0.00,WeatherDisplay:10.37,2013-02-06 12:42:00,
2013-02-06 07:47:00,36.3,29.8,30.06,North,360,0.0,0.0,77,0.00,CLR,,0.00,WeatherDisplay:10.37,2013-02-06 12:47:00,
2013-02-06 07:52:00,36.6,29.7,30.06,North,360,0.0,0.0,76,0.00,CLR,,0.00,WeatherDisplay:10.37,2013-02-06 12:52:00,
2013-02-06 07:57:00,36.6,30.1,30.06,North,360,0.0,0.0,77,0.00,CLR,,0.00,WeatherDisplay:10.37,2013-02-06 12:57:00,
2013-02-06 08:02:00,36.6,30.1,30.06,North,360,0.0,0.0,77,0.00,CLR,,0.00,WeatherDisplay:10.37,2013-02-06 13:02:00,
2013-02-06 08:07:00,36.4,30.2,30.07,North,360,0.0,0.0,78,0.00,CLR,,0.00,WeatherDisplay:10.37,2013-02-06 13:07:00,
2013-02-06 08:12:00,36.5,30.0,30.07,North,360,0.0,0.0,77,0.00,CLR,,0.00,WeatherDisplay:10.37,2013-02-06 13:12:00,
2013-02-06 08:17:00,36.7,29.8,30.08,North,360,0.0,0.0,76,0.00,CLR,,0.00,WeatherDisplay:10.37,2013-02-06 13:17:00,
2013-02-06 08:22:00,37.2,29.7,30.08,North,360,0.0,0.0,74,0.00,CLR,,0.00,WeatherDisplay:10.37,2013-02-06 13:22:00,
2013-02-06 08:27:00,37.3,29.4,30.08,North,360,0.0,0.0,73,0.00,CLR,,0.00,WeatherDisplay:10.37,2013-02-06 13:27:00,
2013-02-06 08:32:00,37.5,30.0,30.08,North,360,0.0,0.0,74,0.00,CLR,,0.00,WeatherDisplay:10.37,2013-02-06 13:32:00,
2013-02-06 08:37:00,37.7,30.2,30.09,North,360,0.0,0.0,74,0.00,CLR,,0.00,WeatherDisplay:10.37,2013-02-06 13:37:00,
2013-02-06 08:42:00,37.8,29.9,30.09,North,360,0.0,0.0,73,0.00,CLR,,0.00,WeatherDisplay:10.37,2013-02-06 13:42:00,
2013-02-06 08:47:00,37.9,30.4,30.09,North,360,0.0,0.0,74,0.00,CLR,,0.00,WeatherDisplay:10.37,2013-02-06 13:47:00,
2013-02-06 08:52:00,37.6,29.7,30.09,North,360,0.0,0.0,73,0.00,CLR,,0.00,WeatherDisplay:10.37,2013-02-06 13:52:00,
2013-02-06 08:57:00,37.9,30.0,30.10,North,360,0.0,0.0,73,0.00,CLR,,0.00,WeatherDisplay:10.37,2013-02-06 13:57:00,
2013-02-06 09:02:00,38.0,30.4,30.10,North,360,0.0,0.0,74,0.00,CLR,,0.00,WeatherDisplay:10.37,2013-02-06 14:02:00,
2013-02-06 09:07:00,37.9,30.0,30.10,North,360,0.0,0.0,73,0.00,CLR,,0.00,WeatherDisplay:10.37,2013-02-06 14:07:00,
2013-02-06 09:12:00,38.2,30.3,30.11,North,360,0.0,0.0,73,0.00,CLR,,0.00,WeatherDisplay:10.37,2013-02-06 14:12:00,
2013-02-06 09:17:00,38.3,30.1,30.11,North,360,0.0,0.0,72,0.00,CLR,,0.00,WeatherDisplay:10.37,2013-02-06 14:17:00,
2013-02-06 09:22:00,38.6,30.0,30.11,North,360,0.0,0.0,71,0.00,CLR,,0.00,WeatherDisplay:10.37,2013-02-06 14:22:00,
2013-02-06 09:27:00,38.7,29.8,30.12,North,360,0.0,0.0,70,0.00,CLR,,0.00,WeatherDisplay:10.37,2013-02-06 14:27:00,
2013-02-06 09:32:00,39.0,30.4,30.12,North,360,0.0,0.0,71,0.00,CLR,,0.00,WeatherDisplay:10.37,2013-02-06 14:32:00,
2013-02-06 09:37:00,39.1,30.1,30.12,North,360,0.0,0.0,70,0.00,CLR,,0.00,WeatherDisplay:10.37,2013-02-06 14:37:00,
2013-02-06 09:42:00,39.1,29.8,30.12,North,360,0.0,0.0,69,0.00,CLR,,0.00,WeatherDisplay:10.37,2013-02-06 14:42:00,
2013-02-06 09:47:00,39.1,29.8,30.12,North,360,0.0,0.0,69,0.00,CLR,,0.00,WeatherDisplay:10.37,2013-02-06 14:47:00,
2013-02-06 09:52:00,39.3,30.0,30.12,North,360,0.0,0.0,69,0.00,CLR,,0.00,WeatherDisplay:10.37,2013-02-06 14:52:00,
2013-02-06 09:57:00,39.7,30.0,30.12,North,360,0.0,0.0,68,0.00,CLR,,0.00,WeatherDisplay:10.37,2013-02-06 14:57:00,
2013-02-06 10:02:00,39.6,29.2,30.12,North,360,0.0,0.0,66,0.00,CLR,,0.00,WeatherDisplay:10.37,2013-02-06 15:02:00,
2013-02-06 10:07:00,39.8,29.7,30.12,North,360,0.0,0.0,67,0.00,CLR,,0.00,WeatherDisplay:10.37,2013-02-06 15:07:00,
2013-02-06 10:12:00,39.8,29.4,30.12,North,360,0.0,0.0,66,0.00,CLR,,0.00,WeatherDisplay:10.37,2013-02-06 15:12:00,
2013-02-06 10:17:00,40.1,30.0,30.13,North,360,0.0,0.0,67,0.00,CLR,,0.00,WeatherDisplay:10.37,2013-02-06 15:17:00,
2013-02-06 10:22:00,40.1,29.6,30.13,North,360,0.0,0.0,66,0.00,CLR,,0.00,WeatherDisplay:10.37,2013-02-06 15:22:00,
2013-02-06 10:28:00,40.6,29.7,30.13,North,360,0.0,0.0,65,0.00,CLR,,0.00,WeatherDisplay:10.37,2013-02-06 15:28:00,
2013-02-06 10:33:00,40.0,29.6,30.14,North,360,0.0,0.0,66,0.00,CLR,,0.00,WeatherDisplay:10.37,2013-02-06 15:33:00,
2013-02-06 10:38:00,40.1,29.3,30.14,North,360,0.0,0.0,65,0.00,CLR,,0.00,WeatherDisplay:10.37,2013-02-06 15:38:00,
2013-02-06 10:43:00,39.7,29.3,30.14,North,360,0.0,0.0,66,0.00,CLR,,0.00,WeatherDisplay:10.37,2013-02-06 15:43:00,
2013-02-06 10:48:00,39.7,29.3,30.14,North,360,0.0,0.0,66,0.00,CLR,,0.00,WeatherDisplay:10.37,2013-02-06 15:48:00,
2013-02-06 10:53:00,39.7,29.3,30.14,North,360,0.0,0.0,66,0.00,CLR,,0.00,WeatherDisplay:10.37,2013-02-06 15:53:00,
2013-02-06 10:58:00,39.5,28.7,30.14,North,360,0.0,0.0,65,0.00,CLR,,0.00,WeatherDisplay:10.37,2013-02-06 15:58:00,
2013-02-06 11:03:00,39.6,28.4,30.14,North,360,0.0,0.0,64,0.00,CLR,,0.00,WeatherDisplay:10.37,2013-02-06 16:03:00,
2013-02-06 11:08:00,40.0,29.2,30.14,North,360,0.0,0.0,65,0.00,CLR,,0.00,WeatherDisplay:10.37,2013-02-06 16:08:00,
2013-02-06 11:13:00,40.0,29.6,30.14,North,360,0.0,0.0,66,0.00,CLR,,0.00,WeatherDisplay:10.37,2013-02-06 16:13:00,
2013-02-06 11:18:00,39.7,28.5,30.14,North,360,0.0,0.0,64,0.00,CLR,,0.00,WeatherDisplay:10.37,2013-02-06 16:18:00,
2013-02-06 11:23:00,39.8,28.6,30.15,North,360,0.0,0.0,64,0.00,CLR,,0.00,WeatherDisplay:10.37,2013-02-06 16:23:00,
2013-02-06 11:28:00,40.3,29.1,30.15,North,360,0.0,0.0,64,0.00,CLR,,0.00,WeatherDisplay:10.37,2013-02-06 16:28:00,
2013-02-06 11:33:00,40.6,29.4,30.14,North,360,0.0,0.0,64,0.00,CLR,,0.00,WeatherDisplay:10.37,2013-02-06 16:33:00,
2013-02-06 11:38:00,40.8,28.8,30.14,North,360,0.0,0.0,62,0.00,CLR,,0.00,WeatherDisplay:10.37,2013-02-06 16:38:00,
2013-02-06 11:43:00,41.2,29.5,30.14,North,360,0.0,0.0,63,0.00,CLR,,0.00,WeatherDisplay:10.37,2013-02-06 16:43:00,
2013-02-06 11:48:00,41.1,29.5,30.14,North,360,0.0,0.0,63,0.00,CLR,,0.00,WeatherDisplay:10.37,2013-02-06 16:48:00,
2013-02-06 11:53:00,41.5,29.8,30.14,North,360,0.0,0.0,63,0.00,CLR,,0.00,WeatherDisplay:10.37,2013-02-06 16:53:00,
2013-02-06 11:58:00,41.6,28.7,30.14,North,360,0.0,0.0,60,0.00,CLR,,0.00,WeatherDisplay:10.37,2013-02-06 16:58:00,
2013-02-06 12:03:00,41.6,29.1,30.14,North,360,0.0,0.0,61,0.00,CLR,,0.00,WeatherDisplay:10.37,2013-02-06 17:03:00,
2013-02-06 12:08:00,42.1,29.2,30.14,North,360,0.0,0.0,60,0.00,CLR,,0.00,WeatherDisplay:10.37,2013-02-06 17:08:00,
2013-02-06 12:13:00,42.5,29.6,30.14,North,360,0.0,0.0,60,0.00,CLR,,0.00,WeatherDisplay:10.37,2013-02-06 17:13:00,
2013-02-06 12:18:00,42.2,29.7,30.14,North,360,0.0,0.0,61,0.00,CLR,,0.00,WeatherDisplay:10.37,2013-02-06 17:18:00,
2013-02-06 12:23:00,41.8,28.9,30.14,North,360,0.0,0.0,60,0.00,CLR,,0.00,WeatherDisplay:10.37,2013-02-06 17:23:00,
2013-02-06 12:28:00,42.2,29.3,30.14,North,360,2.3,0.0,60,0.00,CLR,,0.00,WeatherDisplay:10.37,2013-02-06 17:28:00,
2013-02-06 12:33:00,42.4,29.1,30.14,North,360,0.0,0.0,59,0.00,CLR,,0.00,WeatherDisplay:10.37,2013-02-06 17:33:00,
2013-02-06 12:38:00,42.0,29.5,30.14,North,360,2.3,2.3,61,0.00,CLR,,0.00,WeatherDisplay:10.37,2013-02-06 17:38:00,
2013-02-06 12:43:00,42.2,28.9,30.15,North,350,0.0,0.0,59,0.00,CLR,,0.00,WeatherDisplay:10.37,2013-02-06 17:43:00,
2013-02-06 12:48:00,42.4,29.1,30.14,North,350,0.0,0.0,59,0.00,CLR,,0.00,WeatherDisplay:10.37,2013-02-06 17:48:00,
2013-02-06 12:53:00,42.5,28.8,30.14,North,350,0.0,0.0,58,0.00,CLR,,0.00,WeatherDisplay:10.37,2013-02-06 17:53:00,
2013-02-06 12:58:00,42.6,28.4,30.14,North,360,0.0,0.0,57,0.00,CLR,,0.00,WeatherDisplay:10.37,2013-02-06 17:58:00,
2013-02-06 13:03:00,43.0,29.2,30.14,North,360,0.0,0.0,58,0.00,CLR,,0.00,WeatherDisplay:10.37,2013-02-06 18:03:00,
2013-02-06 13:08:00,43.1,28.9,30.14,North,360,0.0,0.0,57,0.00,CLR,,0.00,WeatherDisplay:10.37,2013-02-06 18:08:00,
2013-02-06 13:13:00,43.3,29.1,30.14,North,360,0.0,0.0,57,0.00,CLR,,0.00,WeatherDisplay:10.37,2013-02-06 18:13:00,
2013-02-06 13:18:00,43.6,28.9,30.14,North,360,0.0,0.0,56,0.00,CLR,,0.00,WeatherDisplay:10.37,2013-02-06 18:18:00,
2013-02-06 13:23:00,43.6,28.9,30.13,North,360,0.0,0.0,56,0.00,CLR,,0.00,WeatherDisplay:10.37,2013-02-06 18:23:00,
2013-02-06 13:28:00,43.8,28.7,30.14,North,360,0.0,0.0,55,0.00,CLR,,0.00,WeatherDisplay:10.37,2013-02-06 18:28:00,
2013-02-06 13:33:00,43.4,29.6,30.14,North,360,0.0,0.0,58,0.00,CLR,,0.00,WeatherDisplay:10.37,2013-02-06 18:33:00,
2013-02-06 13:38:00,44.0,28.9,30.13,North,360,0.0,0.0,55,0.00,CLR,,0.00,WeatherDisplay:10.37,2013-02-06 18:38:00,
2013-02-06 13:43:00,44.2,29.0,30.13,North,360,0.0,0.0,55,0.00,CLR,,0.00,WeatherDisplay:10.37,2013-02-06 18:43:00,
2013-02-06 13:48:00,43.7,29.0,30.14,North,360,0.0,0.0,56,0.00,CLR,,0.00,WeatherDisplay:10.37,2013-02-06 18:48:00,
2013-02-06 13:53:00,43.6,28.9,30.14,North,360,0.0,0.0,56,0.00,CLR,,0.00,WeatherDisplay:10.37,2013-02-06 18:53:00,
2013-02-06 13:58:00,43.9,29.6,30.14,North,360,0.0,0.0,57,0.00,CLR,,0.00,WeatherDisplay:10.37,2013-02-06 18:58:00,
2013-02-06 14:03:00,44.6,29.9,30.13,North,360,0.0,0.0,56,0.00,CLR,,0.00,WeatherDisplay:10.37,2013-02-06 19:03:00,
2013-02-06 14:08:00,44.7,30.0,30.14,North,360,0.0,0.0,56,0.00,CLR,,0.00,WeatherDisplay:10.37,2013-02-06 19:08:00,
2013-02-06 14:13:00,44.4,28.8,30.14,North,360,0.0,0.0,54,0.00,CLR,,0.00,WeatherDisplay:10.37,2013-02-06 19:13:00,
2013-02-06 14:18:00,43.8,28.2,30.14,North,360,0.0,0.0,54,0.00,CLR,,0.00,WeatherDisplay:10.37,2013-02-06 19:18:00,
2013-02-06 14:23:00,43.4,28.7,30.14,North,360,0.0,0.0,56,0.00,CLR,,0.00,WeatherDisplay:10.37,2013-02-06 19:23:00,
2013-02-06 14:28:00,44.0,28.4,30.14,North,360,0.0,0.0,54,0.00,CLR,,0.00,WeatherDisplay:10.37,2013-02-06 19:28:00,
2013-02-06 14:33:00,44.3,28.7,30.14,North,360,0.0,0.0,54,0.00,CLR,,0.00,WeatherDisplay:10.37,2013-02-06 19:33:00,
2013-02-06 14:38:00,44.7,28.6,30.14,North,360,0.0,0.0,53,0.00,CLR,,0.00,WeatherDisplay:10.37,2013-02-06 19:38:00,
2013-02-06 14:43:00,44.1,28.0,30.14,North,360,0.0,0.0,53,0.00,CLR,,0.00,WeatherDisplay:10.37,2013-02-06 19:43:00,
2013-02-06 14:48:00,44.4,28.3,30.14,North,360,0.0,0.0,53,0.00,CLR,,0.00,WeatherDisplay:10.37,2013-02-06 19:48:00,
2013-02-06 14:54:00,44.3,28.2,30.14,North,360,0.0,0.0,53,0.00,CLR,,0.00,WeatherDisplay:10.37,2013-02-06 19:54:00,
2013-02-06 14:59:00,44.2,27.7,30.14,North,360,0.0,0.0,52,0.00,CLR,,0.00,WeatherDisplay:10.37,2013-02-06 19:59:00,
2013-02-06 15:04:00,44.3,27.3,30.14,North,360,0.0,0.0,51,0.00,CLR,,0.00,WeatherDisplay:10.37,2013-02-06 20:04:00,
2013-02-06 15:09:00,44.8,28.2,30.14,North,360,0.0,0.0,52,0.00,CLR,,0.00,WeatherDisplay:10.37,2013-02-06 20:09:00,
2013-02-06 15:14:00,44.7,27.7,30.14,North,360,0.0,0.0,51,0.00,CLR,,0.00,WeatherDisplay:10.37,2013-02-06 20:14:00,
2013-02-06 15:19:00,44.4,26.9,30.14,North,360,0.0,0.0,50,0.00,CLR,,0.00,WeatherDisplay:10.37,2013-02-06 20:19:00,
2013-02-06 15:24:00,44.7,28.1,30.14,North,360,0.0,0.0,52,0.00,CLR,,0.00,WeatherDisplay:10.37,2013-02-06 20:24:00,
2013-02-06 15:29:00,44.9,27.8,30.14,North,360,0.0,0.0,51,0.00,CLR,,0.00,WeatherDisplay:10.37,2013-02-06 20:29:00,
2013-02-06 15:34:00,45.4,27.8,30.14,North,360,0.0,0.0,50,0.00,CLR,,0.00,WeatherDisplay:10.37,2013-02-06 20:34:00,
2013-02-06 15:39:00,45.5,28.4,30.14,North,360,0.0,0.0,51,0.00,CLR,,0.00,WeatherDisplay:10.37,2013-02-06 20:39:00,
2013-02-06 15:44:00,45.5,28.4,30.14,North,360,0.0,0.0,51,0.00,CLR,,0.00,WeatherDisplay:10.37,2013-02-06 20:44:00,
2013-02-06 15:49:00,45.0,28.9,30.14,North,360,0.0,0.0,53,0.00,CLR,,0.00,WeatherDisplay:10.37,2013-02-06 20:49:00,
2013-02-06 15:54:00,44.8,28.2,30.14,North,360,0.0,0.0,52,0.00,CLR,,0.00,WeatherDisplay:10.37,2013-02-06 20:54:00,
2013-02-06 15:59:00,45.0,27.9,30.14,North,360,0.0,0.0,51,0.00,CLR,,0.00,WeatherDisplay:10.37,2013-02-06 20:59:00,
2013-02-06 16:04:00,45.4,28.8,30.15,North,360,0.0,0.0,52,0.00,CLR,,0.00,WeatherDisplay:10.37,2013-02-06 21:04:00,
2013-02-06 16:09:00,46.0,28.4,30.15,North,360,0.0,0.0,50,0.00,CLR,,0.00,WeatherDisplay:10.37,2013-02-06 21:09:00,
2013-02-06 16:14:00,45.9,28.3,30.15,North,360,0.0,0.0,50,0.00,CLR,,0.00,WeatherDisplay:10.37,2013-02-06 21:14:00,
2013-02-06 16:19:00,45.0,27.9,30.15,North,360,0.0,0.0,51,0.00,CLR,,0.00,WeatherDisplay:10.37,2013-02-06 21:19:00,
2013-02-06 16:24:00,45.1,28.0,30.15,North,360,0.0,0.0,51,0.00,CLR,,0.00,WeatherDisplay:10.37,2013-02-06 21:24:00,
2013-02-06 16:29:00,44.9,28.3,30.16,North,360,0.0,0.0,52,0.00,CLR,,0.00,WeatherDisplay:10.37,2013-02-06 21:29:00,
2013-02-06 16:34:00,45.0,28.9,30.16,North,360,0.0,0.0,53,0.00,CLR,,0.00,WeatherDisplay:10.37,2013-02-06 21:34:00,
2013-02-06 16:39:00,44.9,28.8,30.16,North,360,0.0,0.0,53,0.00,CLR,,0.00,WeatherDisplay:10.37,2013-02-06 21:39:00,
2013-02-06 16:44:00,44.7,29.5,30.17,North,360,0.0,0.0,55,0.00,CLR,,0.00,WeatherDisplay:10.37,2013-02-06 21:44:00,
2013-02-06 16:49:00,44.5,29.3,30.17,North,360,0.0,0.0,55,0.00,CLR,,0.00,WeatherDisplay:10.37,2013-02-06 21:49:00,
2013-02-06 16:54:00,44.5,28.9,30.17,North,360,0.0,0.0,54,0.00,CLR,,0.00,WeatherDisplay:10.37,2013-02-06 21:54:00,
2013-02-06 16:59:00,44.3,29.1,30.17,North,360,0.0,0.0,55,0.00,CLR,,0.00,WeatherDisplay:10.37,2013-02-06 21:59:00,
2013-02-06 17:04:00,43.9,29.2,30.17,North,360,0.0,0.0,56,0.00,CLR,,0.00,WeatherDisplay:10.37,2013-02-06 22:04:00,
2013-02-06 17:09:00,43.5,29.3,30.17,North,360,0.0,0.0,57,0.00,CLR,,0.00,WeatherDisplay:10.37,2013-02-06 22:09:00,
2013-02-06 17:14:00,43.1,29.3,30.17,North,360,0.0,0.0,58,0.00,CLR,,0.00,WeatherDisplay:10.37,2013-02-06 22:14:00,
2013-02-06 17:19:00,42.8,29.5,30.17,North,360,0.0,0.0,59,0.00,CLR,,0.00,WeatherDisplay:10.37,2013-02-06 22:19:00,
2013-02-06 17:24:00,42.5,29.2,30.17,North,360,0.0,0.0,59,0.00,CLR,,0.00,WeatherDisplay:10.37,2013-02-06 22:24:00,
2013-02-06 17:29:00,42.1,29.2,30.17,North,360,0.0,0.0,60,0.00,CLR,,0.00,WeatherDisplay:10.37,2013-02-06 22:29:00,
2013-02-06 17:34:00,41.7,28.8,30.17,North,360,0.0,0.0,60,0.00,CLR,,0.00,WeatherDisplay:10.37,2013-02-06 22:34:00,
2013-02-06 17:39:00,41.4,28.5,30.18,North,360,0.0,0.0,60,0.00,CLR,,0.00,WeatherDisplay:10.37,2013-02-06 22:39:00,
2013-02-06 17:44:00,40.9,28.9,30.18,North,360,0.0,0.0,62,0.00,CLR,,0.00,WeatherDisplay:10.37,2013-02-06 22:44:00,
2013-02-06 17:49:00,40.6,28.6,30.18,North,360,0.0,0.0,62,0.00,CLR,,0.00,WeatherDisplay:10.37,2013-02-06 22:49:00,
2013-02-06 17:54:00,40.3,28.7,30.19,North,360,0.0,0.0,63,0.00,CLR,,0.00,WeatherDisplay:10.37,2013-02-06 22:54:00,
2013-02-06 17:59:00,40.0,28.4,30.19,North,360,0.0,0.0,63,0.00,CLR,,0.00,WeatherDisplay:10.37,2013-02-06 22:59:00,
2013-02-06 18:04:00,39.6,28.8,30.19,North,360,0.0,0.0,65,0.00,CLR,,0.00,WeatherDisplay:10.37,2013-02-06 23:04:00,
2013-02-06 18:09:00,39.3,28.5,30.19,North,360,0.0,0.0,65,0.00,CLR,,0.00,WeatherDisplay:10.37,2013-02-06 23:09:00,
2013-02-06 18:14:00,38.9,28.5,30.20,North,360,0.0,0.0,66,0.00,CLR,,0.00,WeatherDisplay:10.37,2013-02-06 23:14:00,
2013-02-06 18:19:00,38.6,28.6,30.20,North,360,0.0,0.0,67,0.00,CLR,,0.00,WeatherDisplay:10.37,2013-02-06 23:19:00,
2013-02-06 18:24:00,38.3,28.7,30.21,North,360,0.0,0.0,68,0.00,CLR,,0.00,WeatherDisplay:10.37,2013-02-06 23:24:00,
2013-02-06 18:29:00,38.1,28.5,30.21,North,360,0.0,0.0,68,0.00,CLR,,0.00,WeatherDisplay:10.37,2013-02-06 23:29:00,
2013-02-06 18:34:00,37.9,28.3,30.22,North,360,0.0,0.0,68,0.00,CLR,,0.00,WeatherDisplay:10.37,2013-02-06 23:34:00,
2013-02-06 18:39:00,37.5,28.2,30.22,North,360,0.0,0.0,69,0.00,CLR,,0.00,WeatherDisplay:10.37,2013-02-06 23:39:00,
2013-02-06 18:44:00,37.3,28.4,30.22,North,360,0.0,0.0,70,0.00,CLR,,0.00,WeatherDisplay:10.37,2013-02-06 23:44:00,
2013-02-06 18:49:00,37.0,28.1,30.22,North,360,0.0,0.0,70,0.00,CLR,,0.00,WeatherDisplay:10.37,2013-02-06 23:49:00,
2013-02-06 18:54:00,36.9,28.0,30.22,North,360,0.0,0.0,70,0.00,CLR,,0.00,WeatherDisplay:10.37,2013-02-06 23:54:00,
2013-02-06 18:59:00,36.7,28.2,30.22,North,360,0.0,0.0,71,0.00,CLR,,0.00,WeatherDisplay:10.37,2013-02-06 23:59:00,
2013-02-06 19:04:00,36.3,28.1,30.22,North,360,0.0,0.0,72,0.00,CLR,,0.00,WeatherDisplay:10.37,2013-02-07 00:04:00,
2013-02-06 19:09:00,36.1,27.9,30.22,North,360,0.0,0.0,72,0.00,CLR,,0.00,WeatherDisplay:10.37,2013-02-07 00:09:00,
2013-02-06 19:14:00,35.9,27.7,30.22,North,360,0.0,0.0,72,0.00,CLR,,0.00,WeatherDisplay:10.37,2013-02-07 00:14:00,
2013-02-06 19:19:00,35.8,27.7,30.22,North,360,0.0,0.0,72,0.00,CLR,,0.00,WeatherDisplay:10.37,2013-02-07 00:19:00,
2013-02-06 19:24:00,35.6,27.8,30.22,North,360,0.0,0.0,73,0.00,CLR,,0.00,WeatherDisplay:10.37,2013-02-07 00:24:00,
2013-02-06 19:29:00,35.5,27.7,30.22,North,360,0.0,0.0,73,0.00,CLR,,0.00,WeatherDisplay:10.37,2013-02-07 00:29:00,
2013-02-06 19:34:00,35.4,27.6,30.22,North,360,0.0,0.0,73,0.00,CLR,,0.00,WeatherDisplay:10.37,2013-02-07 00:34:00,
2013-02-06 19:39:00,35.3,27.5,30.23,North,360,0.0,0.0,73,0.00,CLR,,0.00,WeatherDisplay:10.37,2013-02-07 00:39:00,
2013-02-06 19:44:00,35.2,27.7,30.23,North,360,0.0,0.0,74,0.00,CLR,,0.00,WeatherDisplay:10.37,2013-02-07 00:44:00,
2013-02-06 19:49:00,35.1,27.6,30.23,North,360,0.0,0.0,74,0.00,CLR,,0.00,WeatherDisplay:10.37,2013-02-07 00:49:00,
2013-02-06 19:54:00,34.9,27.5,30.22,North,360,0.0,0.0,74,0.00,CLR,,0.00,WeatherDisplay:10.37,2013-02-07 00:54:00,
2013-02-06 19:59:00,34.5,27.4,30.23,North,360,0.0,0.0,75,0.00,CLR,,0.00,WeatherDisplay:10.37,2013-02-07 00:59:00,
2013-02-06 20:04:00,34.0,27.2,30.23,North,360,0.0,0.0,76,0.00,CLR,,0.00,WeatherDisplay:10.37,2013-02-07 01:04:00,
2013-02-06 20:09:00,33.7,26.9,30.24,North,360,0.0,0.0,76,0.00,CLR,,0.00,WeatherDisplay:10.37,2013-02-07 01:09:00,
2013-02-06 20:14:00,33.6,27.2,30.24,North,360,0.0,0.0,77,0.00,CLR,,0.00,WeatherDisplay:10.37,2013-02-07 01:14:00,
2013-02-06 20:19:00,33.2,26.8,30.24,North,360,0.0,0.0,77,0.00,CLR,,0.00,WeatherDisplay:10.37,2013-02-07 01:19:00,
2013-02-06 20:24:00,33.1,26.7,30.24,North,360,0.0,0.0,77,0.00,CLR,,0.00,WeatherDisplay:10.37,2013-02-07 01:24:00,
2013-02-06 20:29:00,32.9,26.8,30.24,North,360,0.0,0.0,78,0.00,CLR,,0.00,WeatherDisplay:10.37,2013-02-07 01:29:00,
2013-02-06 20:34:00,32.9,26.8,30.24,North,360,0.0,0.0,78,0.00,CLR,,0.00,WeatherDisplay:10.37,2013-02-07 01:34:00,
2013-02-06 20:39:00,32.7,26.6,30.24,North,360,0.0,0.0,78,0.00,CLR,,0.00,WeatherDisplay:10.37,2013-02-07 01:39:00,
2013-02-06 20:44:00,32.4,26.6,30.24,North,360,0.0,0.0,79,0.00,CLR,,0.00,WeatherDisplay:10.37,2013-02-07 01:44:00,
2013-02-06 20:49:00,32.2,26.7,30.24,North,360,0.0,0.0,80,0.00,CLR,,0.00,WeatherDisplay:10.37,2013-02-07 01:49:00,
2013-02-06 20:54:00,31.9,26.4,30.24,North,360,0.0,0.0,80,0.00,CLR,,0.00,WeatherDisplay:10.37,2013-02-07 01:54:00,
2013-02-06 20:59:00,31.7,26.2,30.25,North,360,0.0,0.0,80,0.00,CLR,,0.00,WeatherDisplay:10.37,2013-02-07 01:59:00,
2013-02-06 21:04:00,31.5,26.3,30.25,North,360,0.0,0.0,81,0.00,CLR,,0.00,WeatherDisplay:10.37,2013-02-07 02:04:00,
2013-02-06 21:09:00,31.4,26.2,30.25,North,360,0.0,0.0,81,0.00,CLR,,0.00,WeatherDisplay:10.37,2013-02-07 02:09:00,
2013-02-06 21:15:00,31.3,26.4,30.25,North,360,0.0,0.0,82,0.00,CLR,,0.00,WeatherDisplay:10.37,2013-02-07 02:15:00,
2013-02-06 21:20:00,31.0,26.1,30.25,North,360,0.0,0.0,82,0.00,CLR,,0.00,WeatherDisplay:10.37,2013-02-07 02:20:00,
2013-02-06 21:25:00,30.9,26.3,30.26,North,360,0.0,0.0,83,0.00,CLR,,0.00,WeatherDisplay:10.37,2013-02-07 02:25:00,
2013-02-06 21:30:00,30.6,26.1,30.26,North,360,0.0,0.0,83,0.00,CLR,,0.00,WeatherDisplay:10.37,2013-02-07 02:30:00,
2013-02-06 21:35:00,30.5,26.2,30.26,North,360,0.0,0.0,84,0.00,CLR,,0.00,WeatherDisplay:10.37,2013-02-07 02:35:00,
2013-02-06 21:40:00,30.4,26.1,30.26,North,360,0.0,0.0,84,0.00,CLR,,0.00,WeatherDisplay:10.37,2013-02-07 02:40:00,
2013-02-06 21:45:00,30.5,26.2,30.25,North,360,0.0,0.0,84,0.00,CLR,,0.00,WeatherDisplay:10.37,2013-02-07 02:45:00,
2013-02-06 21:50:00,30.5,26.2,30.25,North,360,0.0,0.0,84,0.00,CLR,,0.00,WeatherDisplay:10.37,2013-02-07 02:50:00,
2013-02-06 21:55:00,30.6,26.1,30.25,North,360,0.0,0.0,83,0.00,CLR,,0.00,WeatherDisplay:10.37,2013-02-07 02:55:00,
2013-02-06 22:00:00,30.7,26.4,30.25,North,360,0.0,0.0,84,0.00,CLR,,0.00,WeatherDisplay:10.37,2013-02-07 03:00:00,
2013-02-06 22:05:00,30.4,26.1,30.25,North,360,0.0,0.0,84,0.00,CLR,,0.00,WeatherDisplay:10.37,2013-02-07 03:05:00,
2013-02-06 22:10:00,30.1,25.8,30.25,North,360,0.0,0.0,84,0.00,CLR,,0.00,WeatherDisplay:10.37,2013-02-07 03:10:00,
2013-02-06 22:15:00,29.8,25.8,30.25,North,360,0.0,0.0,85,0.00,CLR,,0.00,WeatherDisplay:10.37,2013-02-07 03:15:00,
2013-02-06 22:20:00,29.5,25.8,30.25,North,360,0.0,0.0,86,0.00,CLR,,0.00,WeatherDisplay:10.37,2013-02-07 03:20:00,
2013-02-06 22:25:00,29.1,25.4,30.25,North,360,0.0,0.0,86,0.00,CLR,,0.00,WeatherDisplay:10.37,2013-02-07 03:25:00,
2013-02-06 22:30:00,28.9,25.5,30.25,North,360,0.0,0.0,87,0.00,CLR,,0.00,WeatherDisplay:10.37,2013-02-07 03:30:00,
2013-02-06 22:35:00,28.6,25.2,30.25,North,360,0.0,0.0,87,0.00,CLR,,0.00,WeatherDisplay:10.37,2013-02-07 03:35:00,
2013-02-06 22:40:00,28.4,25.3,30.25,North,360,0.0,0.0,88,0.00,CLR,,0.00,WeatherDisplay:10.37,2013-02-07 03:40:00,
2013-02-06 22:45:00,28.3,25.2,30.25,North,360,0.0,0.0,88,0.00,CLR,,0.00,WeatherDisplay:10.37,2013-02-07 03:45:00,
2013-02-06 22:50:00,28.2,25.1,30.24,North,360,0.0,0.0,88,0.00,CLR,,0.00,WeatherDisplay:10.37,2013-02-07 03:50:00,
2013-02-06 22:55:00,28.2,25.1,30.24,North,360,0.0,0.0,88,0.00,CLR,,0.00,WeatherDisplay:10.37,2013-02-07 03:55:00,
2013-02-06 23:00:00,28.2,25.1,30.24,North,360,0.0,0.0,88,0.00,CLR,,0.00,WeatherDisplay:10.37,2013-02-07 04:00:00,
2013-02-06 23:05:00,28.2,25.1,30.23,North,360,0.0,0.0,88,0.00,CLR,,0.00,WeatherDisplay:10.37,2013-02-07 04:05:00,
2013-02-06 23:10:00,28.1,25.0,30.24,North,360,0.0,0.0,88,0.00,CLR,,0.00,WeatherDisplay:10.37,2013-02-07 04:10:00,
2013-02-06 23:15:00,28.0,25.2,30.24,North,360,0.0,0.0,89,0.00,CLR,,0.00,WeatherDisplay:10.37,2013-02-07 04:15:00,
2013-02-06 23:20:00,27.8,25.0,30.24,North,360,0.0,0.0,89,0.00,CLR,,0.00,WeatherDisplay:10.37,2013-02-07 04:20:00,
2013-02-06 23:25:00,27.7,24.9,30.25,North,360,0.0,0.0,89,0.00,CLR,,0.00,WeatherDisplay:10.37,2013-02-07 04:25:00,
2013-02-06 23:30:00,27.5,25.0,30.25,North,360,0.0,0.0,90,0.00,CLR,,0.00,WeatherDisplay:10.37,2013-02-07 04:30:00,
2013-02-06 23:35:00,27.5,25.0,30.25,North,360,0.0,0.0,90,0.00,CLR,,0.00,WeatherDisplay:10.37,2013-02-07 04:35:00,
2013-02-06 23:40:00,27.6,25.1,30.25,North,360,0.0,0.0,90,0.00,CLR,,0.00,WeatherDisplay:10.37,2013-02-07 04:40:00,
2013-02-06 23:45:00,27.6,25.1,30.25,North,360,0.0,0.0,90,0.00,CLR,,0.00,WeatherDisplay:10.37,2013-02-07 04:45:00,
2013-02-06 23:50:00,27.7,25.2,30.26,North,360,0.0,0.0,90,0.00,CLR,,0.00,WeatherDisplay:10.37,2013-02-07 04:50:00,
2013-02-06 23:55:00,27.7,25.2,30.26,North,360,0.0,0.0,90,0.00,CLR,,0.00,WeatherDisplay:10.37,2013-02-07 04:55:00,